DW3383 Weather Reports


time (UTC)temp
F
wind
direction
speed
knots
gust
knots
rain 1hr
in
rain 24hr
in
rain mn
in
humidity
%
barometer
mb
20260831130804 35 279 2.6 4.3 0.00 0.02 0.00 98 1004.5
20260831130304 35 158 3.5 5.2 0.00 0.02 0.00 98 1004.6
20260831120303 31 264 1.7 2.6 0.00 0.04 0.00 98 1005.5
20260831110803 31 278 1.7 2.6 0.00 0.09 0.00 98 1006.4
20260831110303 31 279 1.7 4.3 0.00 0.18 0.00 98 1006.5
20260831100803 31 276 1.7 2.6 0.00 0.26 0.00 98 1007.1
20260831100303 31 280 1.7 2.6 0.00 0.26 0.00 98 1007.2
20260831090303 33 272 2.6 4.3 0.00 0.50 0.00 98 1007.8
20260831080303 34 279 2.6 4.3 0.00 0.65 0.00 98 1008.3
20260831070812 36 154 2.6 4.3 0.00 0.80 0.00 98 1008.7
20260831070303 37 252 2.6 4.3 0.00 0.81 0.00 98 1008.8
20260831060803 40 268 2.6 2.6 0.00 0.86 0.65 96 1009.3
20260831060303 40 271 2.6 6.1 0.00 0.86 0.65 96 1009.3
20260831050802 45 149 2.6 5.2 0.00 0.86 0.65 92 1009.7
20260831050303 45 267 3.5 4.3 0.00 0.86 0.65 92 1009.8
20260831040802 49 25 2.6 4.3 0.00 0.86 0.65 86 1010.2
20260831030304 50 278 4.3 4.3 0.00 0.86 0.65 75 1010.2
20260831020803 52 33 0.9 1.7 0.00 0.87 0.65 70 1010.5
20260831010303 52 117 0.9 2.6 0.00 0.88 0.65 69 1010.7
20260831000802 52 87 0.9 4.3 0.00 0.88 0.65 76 1011.2
20260830220804 51 281 1.7 4.3 0.00 0.88 0.65 81 1012.1
20260830210804 49 35 2.6 5.2 0.00 0.88 0.65 86 1012.4
20260830210305 49 27 1.7 6.1 0.00 0.88 0.65 84 1012.5
20260830200805 47 355 1.7 2.6 0.00 0.88 0.65 93 1012.6
20260830190304 47 17 1.7 2.6 0.00 0.88 0.65 90 1012.8
20260830180804 46 229 1.7 1.7 0.00 0.88 0.65 92 1012.8
20260830170804 44 274 2.6 2.6 0.00 0.88 0.65 99 1012.9
20260830170304 44 275 2.6 5.2 0.00 0.88 0.65 99 1012.8
20260830160804 43 261 2.6 4.3 0.00 0.88 0.65 99 1012.6
20260830150804 42 139 1.7 4.3 0.00 0.88 0.65 99 1012.1
20260830150305 42 165 2.6 6.1 0.00 0.88 0.65 99 1012.1
20260830140804 43 281 4.3 5.2 0.01 0.88 0.65 98 1011.6
20260830140304 43 242 2.6 5.2 0.01 0.88 0.65 98 1011.5